This is the latest recevied weather packets stored in our database for station/object KA7EII-13. If no packets are shown the sender has not sent any weather packets the latest 10 day(s).
| Time | Temp. | Humidity | Pressure | Rain* | Wind** | Luminosity | Snow |
|---|---|---|---|---|---|---|---|
| 1788151354 | 58° F | 34% | 832 mmHg | 0 in | - | 0 W/m² | - |
| 1788151050 | 58° F | 35% | 832 mmHg | 0 in | - | 0 W/m² | - |
| 1788150745 | 59° F | 33% | 831.7 mmHg | 0 in | - | 0 W/m² | - |
| 1788150444 | 60° F | 32% | 831.9 mmHg | 0 in | - | 0 W/m² | - |
| 1788150139 | 59° F | 32% | 831.7 mmHg | 0 in | - | 0 W/m² | - |
| 1788149834 | 59° F | 34% | 831.7 mmHg | 0 in | - | 0 W/m² | - |
| 1788149529 | 57° F | 35% | 832 mmHg | 0 in | - | 0 W/m² | - |
| 1788149229 | 57° F | 37% | 831.7 mmHg | 0 in | - | 0 W/m² | - |
| 1788148928 | 57° F | 36% | 831.9 mmHg | 0 in | - | 0 W/m² | - |
| 1788148627 | 57° F | 37% | 832 mmHg | 0 in | - | 0 W/m² | - |
| 1788148322 | 57° F | 37% | 831.8 mmHg | 0 in | - | 0 W/m² | - |
| 1788148021 | 57° F | 37% | 831.8 mmHg | 0 in | - | 0 W/m² | - |
| 1788147716 | 58° F | 37% | 831.4 mmHg | 0 in | - | 0 W/m² | - |
| 1788147412 | 58° F | 36% | 831.7 mmHg | 0 in | - | 0 W/m² | - |
| 1788147111 | 58° F | 36% | 831.5 mmHg | 0 in | - | 0 W/m² | - |
| 1788146812 | 58° F | 36% | 831.5 mmHg | 0 in | - | 0 W/m² | - |
| 1788146507 | 58° F | 36% | 831.6 mmHg | 0 in | - | 0 W/m² | - |
| 1788146202 | 58° F | 37% | 831.5 mmHg | 0 in | - | 0 W/m² | - |
| 1788145902 | 58° F | 38% | 831.6 mmHg | 0 in | - | 0 W/m² | - |
| 1788145600 | 59° F | 38% | 831.7 mmHg | 0 in | - | 0 W/m² | - |
| 1788145300 | 60° F | 35% | 831.5 mmHg | 0 in | - | 0 W/m² | - |
| 1788144998 | 60° F | 35% | 831.5 mmHg | 0 in | - | 0 W/m² | - |
| 1788144693 | 61° F | 34% | 831.4 mmHg | 0 in | - | 0 W/m² | - |
| 1788144390 | 61° F | 34% | 831.4 mmHg | 0 in | - | 0 W/m² | - |
| 1788144088 | 62° F | 33% | 831.4 mmHg | 0 in | - | 0 W/m² | - |
* Rain latest hour (hover to see other rain measurements)
** Current wind speed in m/s (hover to see current wind gust speed)